Date String (YYYY-MM-DD hh:mm:ss) UTC,Instrument flags,Ambient pressure (hPa),Sample flow (lpm),Bypass flow (lpm),Sample temperature (°C),Ambient temperature (°C),ASC tube jacket temperature (°C),LED temperature (°C),Box temperature (°C),Sample RH (%),Span deviation,Mass concentration (μg/m³),Mass concentration (μg/m³),Mass concentration (μg/m³)
DateTimeUTC,F1_M11,P_M11,Q1_M11,Q2_M11,T1_M11,T2_M11,T3_M11,T4_M11,T5_M11,U1_M11,ZSPAN_M11,X0_M11,X2_M11,X1_M11
2022-02-03 20:00:00,,0827.0,5.00,0.00,23.3,22.5,00.0,32.2,25.1,04.6,0002.3,0013.26,0009.26,0008.87
2022-02-03 20:01:00,,0827.0,4.99,0.00,23.3,22.5,00.0,32.2,25.1,04.6,0002.4,0013.00,0009.29,0008.87
2022-02-03 20:02:00,,0827.1,5.01,0.00,23.3,22.6,00.0,32.2,25.2,04.6,0002.8,0013.02,0009.31,0008.90
2022-02-03 20:03:00,,0827.0,4.99,0.00,23.3,22.6,00.0,32.2,25.1,04.6,0002.7,0012.98,0009.30,0008.90
2022-02-03 20:04:00,,0827.0,5.01,0.00,23.3,22.6,00.0,32.2,25.1,04.6,0002.2,0012.94,0009.29,0008.91
2022-02-03 20:05:00,,0827.0,4.99,0.00,23.3,22.6,00.0,32.2,25.2,04.6,0002.6,0012.94,0009.30,0008.90
2022-02-03 20:06:00,,0827.0,5.01,0.00,23.4,22.6,00.0,32.3,25.2,04.6,0002.6,0012.91,0009.29,0008.90
2022-02-03 20:07:00,,0827.0,4.99,0.00,23.4,22.6,00.0,32.3,25.2,04.6,0002.4,0012.84,0009.26,0008.89
2022-02-03 20:08:00,,0827.0,5.02,0.00,23.4,22.6,00.0,32.3,25.2,04.7,0002.2,0012.85,0009.25,0008.87
2022-02-03 20:09:00,,0827.0,4.98,0.00,23.4,22.6,00.0,32.3,25.2,04.7,0001.6,0012.74,0009.24,0008.86
2022-02-03 20:10:00,,0827.0,5.01,0.00,23.4,22.6,00.0,32.3,25.2,04.7,0001.8,0012.46,0009.23,0008.88
2022-02-03 20:11:00,,0827.0,4.99,0.00,23.4,22.6,00.0,32.3,25.2,04.8,0001.0,0012.03,0009.24,0008.89
2022-02-03 20:12:00,,0827.0,5.01,0.00,23.4,22.7,00.0,32.3,25.2,04.8,0001.0,0012.05,0009.24,0008.90
2022-02-03 20:13:00,,0827.0,5.00,0.00,23.4,22.7,00.0,32.3,25.2,04.7,0001.0,0012.06,0009.24,0008.91
2022-02-03 20:14:00,,0827.0,4.99,0.00,23.4,22.7,00.0,32.3,25.2,04.7,0001.3,0012.13,0009.25,0008.91
2022-02-03 20:15:00,,0827.0,5.01,0.00,23.4,22.7,00.0,32.3,25.2,04.8,0001.7,0012.22,0009.28,0008.93
2022-02-03 20:16:00,,0827.0,5.00,0.00,23.4,22.7,00.0,32.3,25.2,04.8,0001.3,0012.20,0009.29,0008.95
2022-02-03 20:17:00,,0827.0,4.99,0.00,23.4,22.7,00.0,32.3,25.3,04.7,0000.9,0012.22,0009.30,0008.96
2022-02-03 20:18:00,,0827.0,5.01,0.00,23.5,22.7,00.0,32.3,25.3,04.7,0001.1,0012.24,0009.33,0008.99
2022-02-03 20:19:00,,0827.0,5.00,0.00,23.5,22.7,00.0,32.4,25.3,04.7,0001.0,0012.29,0009.39,0009.04
2022-02-03 20:20:00,,0827.0,4.99,0.00,23.5,22.7,00.0,32.4,25.3,04.8,0001.6,0012.42,0009.43,0009.08
2022-02-03 20:21:00,,0827.0,5.02,0.00,23.5,22.7,00.0,32.4,25.3,04.8,0001.6,0013.45,0009.49,0009.13
2022-02-03 20:22:00,,0827.0,4.98,0.00,23.5,22.7,00.0,32.4,25.3,05.0,0001.8,0014.06,0009.61,0009.25
2022-02-03 20:23:00,,0827.0,5.01,0.00,23.5,22.7,00.0,32.4,25.3,05.0,0001.4,0014.15,0009.72,0009.37
2022-02-03 20:24:00,,0827.0,4.99,0.00,23.5,22.7,00.0,32.4,25.4,05.0,0001.2,0014.20,0009.80,0009.47
2022-02-03 20:25:00,,0827.0,4.99,0.00,23.5,22.7,00.0,32.4,25.4,05.0,0001.1,0014.33,0009.94,0009.60
2022-02-03 20:26:00,,0827.0,5.00,0.00,23.5,22.7,00.0,32.4,25.4,04.9,0000.6,0014.46,0010.06,0009.73
2022-02-03 20:27:00,,0827.0,5.00,0.00,23.5,22.7,00.0,32.4,25.4,05.0,0000.6,0014.68,0010.23,0009.88
2022-02-03 20:28:00,,0827.0,4.99,0.00,23.6,22.7,00.0,32.4,25.4,05.0,0000.8,0014.92,0010.41,0010.03
2022-02-03 20:29:00,,0827.0,5.00,0.00,23.5,22.7,00.0,32.4,25.4,04.9,0000.8,0015.06,0010.54,0010.16
2022-02-03 20:30:00,,0827.0,5.01,0.00,23.5,22.6,00.0,32.4,25.3,04.9,0001.3,0015.20,0010.65,0010.28
2022-02-03 20:31:00,,0827.0,5.00,0.00,23.5,22.6,00.0,32.4,25.2,04.9,0001.2,0015.31,0010.78,0010.41
2022-02-03 20:32:00,,0827.0,5.01,0.00,23.4,22.5,00.0,32.4,25.2,05.0,0001.0,0014.37,0010.84,0010.49
2022-02-03 20:33:00,,0827.0,4.98,0.00,23.4,22.5,00.0,32.4,25.1,05.0,0000.9,0013.96,0010.88,0010.52
2022-02-03 20:34:00,,0827.0,5.01,0.00,23.4,22.4,00.0,32.4,25.1,05.0,0001.4,0013.97,0010.92,0010.56
2022-02-03 20:35:00,,0827.0,5.00,0.00,23.3,22.4,00.0,32.4,25.1,05.0,0001.6,0014.08,0010.98,0010.60
2022-02-03 20:36:00,,0827.0,4.99,0.00,23.3,22.4,00.0,32.3,25.1,05.0,0001.6,0014.39,0010.97,0010.60
2022-02-03 20:37:00,,0827.0,5.01,0.00,23.3,22.4,00.0,32.3,25.1,05.0,0002.0,0014.36,0010.95,0010.60
2022-02-03 20:38:00,,0826.9,4.98,0.00,23.3,22.4,00.0,32.3,25.1,05.0,0002.1,0014.32,0010.92,0010.57
2022-02-03 20:39:00,,0827.0,5.00,0.00,23.3,22.4,00.0,32.3,25.1,05.1,0002.4,0014.31,0010.89,0010.54
2022-02-03 20:40:00,,0827.0,5.00,0.00,23.3,22.4,00.0,32.3,25.1,05.0,0002.6,0014.34,0010.88,0010.50
2022-02-03 20:41:00,,0826.9,4.99,0.00,23.3,22.5,00.0,32.3,25.1,05.1,0001.8,0014.33,0010.86,0010.48
2022-02-03 20:42:00,,0826.9,5.02,0.00,23.3,22.4,00.0,32.3,25.1,05.1,0001.9,0014.25,0010.83,0010.46
2022-02-03 20:43:00,,0827.0,5.01,0.00,23.3,22.4,00.0,32.3,25.1,05.1,0002.0,0014.25,0010.83,0010.44
2022-02-03 20:44:00,,0827.0,4.99,0.00,23.3,22.4,00.0,32.3,25.1,05.1,0002.2,0014.36,0010.83,0010.42
2022-02-03 20:45:00,,0827.0,5.01,0.00,23.3,22.4,00.0,32.2,25.1,05.1,0001.8,0014.41,0010.83,0010.41
2022-02-03 20:46:00,,0827.0,4.99,0.00,23.3,22.4,00.0,32.2,25.1,05.1,0002.1,0014.36,0010.79,0010.38
2022-02-03 20:47:00,,0827.0,5.01,0.00,23.3,22.4,00.0,32.2,25.1,05.0,0001.8,0014.08,0010.81,0010.39
2022-02-03 20:48:00,,0827.0,4.99,0.00,23.3,22.4,00.0,32.2,25.1,05.1,0001.5,0014.02,0010.82,0010.39
2022-02-03 20:49:00,,0827.0,5.01,0.00,23.2,22.4,00.0,32.2,25.1,05.2,0001.7,0014.06,0010.83,0010.39
2022-02-03 20:50:00,,0827.0,4.99,0.00,23.3,22.4,00.0,32.2,25.1,05.1,0001.4,0014.09,0010.86,0010.42
2022-02-03 20:51:00,,0827.0,5.02,0.00,23.3,22.5,00.0,32.2,25.1,05.1,0001.2,0014.18,0010.91,0010.47
2022-02-03 20:52:00,,0827.0,4.99,0.00,23.3,22.5,00.0,32.2,25.1,05.1,0001.3,0014.24,0010.97,0010.52
2022-02-03 20:53:00,,0827.0,5.01,0.00,23.3,22.5,00.0,32.2,25.1,05.1,0001.2,0014.32,0011.02,0010.56
2022-02-03 20:54:00,,0827.0,5.01,0.00,23.3,22.5,00.0,32.2,25.1,05.0,0001.5,0014.32,0011.05,0010.59
2022-02-03 20:55:00,,0827.0,4.97,0.00,23.3,22.5,00.0,32.2,25.1,05.0,0002.0,0014.24,0011.04,0010.60
2022-02-03 20:56:00,,0827.0,5.01,0.00,23.3,22.5,00.0,32.2,25.2,05.1,0002.1,0014.57,0011.04,0010.61
2022-02-03 20:57:00,,0826.9,4.98,0.00,23.3,22.6,00.0,32.2,25.2,05.0,0001.6,0014.82,0011.05,0010.63
2022-02-03 20:58:00,,0827.0,5.01,0.00,23.3,22.6,00.0,32.2,25.2,05.1,0001.7,0014.81,0011.05,0010.62
2022-02-03 20:59:00,,0827.0,4.99,0.00,23.3,22.5,00.0,32.2,25.2,05.1,0001.5,0015.02,0011.06,0010.62
